QPF
0.00 0.00 0.00 0.00 0.00 0.00 0.00 0.00 0.00 0.00 0.01 0.03 0.01 0.01 0.02 0.00 0.01 0.07 0.00 0.00 0.00 0.01 0.01 0.02 0.01 0.00 0.00 0.00 0.01 0.02 0.04 0.04 0.06 0.01 0.00 0.00 0.00 0.03 0.06 0.10 0.03 0.00 0.00
0.00 0.00 0.00 0.00 0.00 0.00 0.00 0.00 0.00 0.00 0.00 0.00 0.00 0.01 0.06 0.01 0.02 0.10 0.05 0.00 0.03 0.05 0.02 0.01 0.00 0.00 0.01 0.01 0.00 0.02 0.00 0.00 0.03 0.02 0.01 0.00 0.02 0.01 0.06 0.09 0.04 0.00 0.00
0.00 0.00 0.00 0.00 0.00 0.00 0.00 0.00 0.00 0.00 0.00 0.00 0.00 0.02 0.01 0.00 0.00 0.01 0.08 0.04 0.00 0.01 0.01 0.08 0.08 0.01 0.00 0.03 0.02 0.00 0.00 0.00 0.03 0.01 0.00 0.00 0.02 0.03 0.03 0.03 0.04 0.02 0.01
0.00 0.00 0.00 0.00 0.00 0.00 0.00 0.00 0.00 0.00 0.00 0.00 0.00 0.00 0.00 0.00 0.00 0.00 0.04 0.01 0.00 0.01 0.03 0.11 0.05 0.01 0.03 0.05 0.08 0.05 0.07 0.05 0.09 0.12 0.09 0.03 0.04 0.12 0.05 0.05 0.11 0.09 0.06
0.00 0.00 0.00 0.00 0.00 0.00 0.00 0.00 0.00 0.00 0.00 0.00 0.00 0.00 0.00 0.00 0.00 0.00 0.00 0.01 0.04 0.05 0.05 0.04 0.04 0.04 0.06 0.05 0.06 0.05 0.17 0.13 0.17 0.13 0.11 0.09 0.10 0.15 0.09 0.06 0.05 0.08 0.11
0.00 0.00 0.00 0.00 0.00 0.00 0.00 0.01 0.02 0.01 0.00 0.00 0.00 0.00 0.00 0.00 0.00 0.00 0.00 0.00 0.00 0.05 0.07 0.03 0.04 0.06 0.04 0.01 0.00 0.01 0.01 0.03 0.05 0.09 0.09 0.08 0.09 0.03 0.05 0.05 0.09 0.08 0.18
0.03 0.04 0.01 0.02 0.01 0.00 0.00 0.00 0.01 0.02 0.00 0.00 0.00 0.00 0.00 0.00 0.00 0.00 0.00 0.00 0.00 0.00 0.03 0.02 0.07 0.10 0.08 0.04 0.03 0.00 0.00 0.00 0.00 0.01 0.05 0.03 0.02 0.00 0.00 0.02 0.10 0.03 0.01
0.01 0.06 0.08 0.08 0.05 0.03 0.02 0.01 0.03 0.06 0.05 0.04 0.02 0.02 0.02 0.01 0.00 0.00 0.00 0.01 0.01 0.02 0.05 0.03 0.03 0.06 0.03 0.04 0.03 0.01 0.00 0.00 0.00 0.00 0.00 0.00 0.00 0.00 0.00 0.00 0.00 0.00 0.00
0.01 0.04 0.08 0.11 0.10 0.08 0.05 0.06 0.09 0.09 0.13 0.08 0.09 0.09 0.07 0.05 0.03 0.00 0.00 0.00 0.02 0.02 0.01 0.00 0.00 0.00 0.00 0.00 0.03 0.01 0.00 0.00 0.00 0.00 0.00 0.00 0.00 0.00 0.00 0.00 0.01 0.02 0.00
0.03 0.04 0.03 0.04 0.04 0.07 0.09 0.11 0.15 0.17 0.15 0.10 0.10 0.08 0.08 0.08 0.05 0.00 0.00 0.00 0.01 0.00 0.00 0.00 0.00 0.00 0.00 0.00 0.02 0.00 0.00 0.00 0.00 0.00 0.00 0.00 0.00 0.00 0.00 0.00 0.00 0.01 0.00
0.01 0.00 0.00 0.01 0.01 0.00 0.01 0.04 0.13 0.17 0.12 0.05 0.05 0.08 0.06 0.04 0.03 0.02 0.01 0.00 0.00 0.00 0.00 0.00 0.00 0.00 0.00 0.00 0.00 0.00 0.00 0.00 0.00 0.00 0.00 0.00 0.00 0.00 0.00 0.00 0.00 0.00 0.00
0.02 0.00 0.00 0.01 0.01 0.02 0.03 0.02 0.04 0.06 0.04 0.01 0.02 0.03 0.02 0.01 0.02 0.03 0.02 0.00 0.00 0.00 0.00 0.00 0.00 0.00 0.00 0.00 0.00 0.00 0.00 0.00 0.00 0.00 0.00 0.00 0.00 0.00 0.00 0.00 0.00 0.00 0.00
0.05 0.00 0.00 0.01 0.01 0.01 0.00 0.00 0.01 0.02 0.01 0.01 0.01 0.02 0.03 0.04 0.05 0.07 0.04 0.03 0.03 0.02 0.01 0.01 0.00 0.00 0.00 0.00 0.00 0.00 0.00 0.00 0.00 0.00 0.00 0.00 0.00 0.00 0.00 0.00 0.00 0.00 0.00
0.07 0.00 0.00 0.00 0.01 0.01 0.00 0.00 0.01 0.06 0.12 0.16 0.12 0.05 0.03 0.04 0.04 0.06 0.08 0.09 0.08 0.04 0.03 0.02 0.00 0.00 0.00 0.00 0.00 0.00 0.00 0.00 0.00 0.00 0.00 0.00 0.00 0.00 0.00 0.00 0.00 0.00 0.00
0.01 0.01 0.00 0.00 0.00 0.00 0.00 0.00 0.01 0.03 0.11 0.22 0.32 0.36 0.33 0.24 0.21 0.21 0.13 0.07 0.06 0.06 0.04 0.02 0.01 0.01 0.01 0.01 0.00 0.00 0.00 0.00 0.00 0.00 0.00 0.00 0.00 0.00 0.00 0.00 0.00 0.00 0.00
0.01 0.04 0.06 0.00 0.02 0.02 0.02 0.00 0.00 0.00 0.01 0.05 0.11 0.10 0.11 0.09 0.10 0.08 0.07 0.06 0.05 0.05 0.05 0.04 0.02 0.01 0.00 0.00 0.00 0.00 0.00 0.00 0.00 0.00 0.00 0.00 0.00 0.00 0.00 0.00 0.00 0.00 0.00
0.03 0.06 0.10 0.03 0.01 0.04 0.06 0.02 0.02 0.02 0.02 0.01 0.02 0.02 0.03 0.04 0.03 0.02 0.01 0.00 0.00 0.00 0.00 0.00 0.00 0.00 0.00 0.00 0.00 0.00 0.00 0.00 0.00 0.00 0.00 0.00 0.00 0.00 0.00 0.00 0.00 0.00 0.00
0.00 0.05 0.12 0.10 0.02 0.01 0.02 0.05 0.04 0.06 0.08 0.04 0.02 0.01 0.01 0.05 0.04 0.02 0.02 0.01 0.00 0.00 0.00 0.00 0.00 0.00 0.00 0.00 0.00 0.00 0.00 0.00 0.00 0.00 0.00 0.00 0.00 0.00 0.00 0.00 0.00 0.00 0.00
0.00 0.00 0.03 0.04 0.05 0.05 0.04 0.04 0.05 0.05 0.04 0.03 0.01 0.01 0.02 0.04 0.04 0.02 0.01 0.00 0.00 0.00 0.00 0.00 0.00 0.00 0.00 0.00 0.00 0.00 0.00 0.00 0.00 0.00 0.00 0.00 0.00 0.00 0.00 0.00 0.00 0.00 0.00
0.00 0.00 0.02 0.05 0.06 0.07 0.08 0.06 0.04 0.03 0.02 0.02 0.01 0.01 0.00 0.00 0.01 0.00 0.00 0.00 0.00 0.00 0.00 0.00 0.00 0.00 0.00 0.00 0.00 0.00 0.00 0.00 0.00 0.00 0.00 0.00 0.00 0.00 0.00 0.00 0.00 0.00 0.00
0.00 0.00 0.00 0.01 0.03 0.03 0.05 0.03 0.03 0.01 0.01 0.01 0.01 0.00 0.00 0.00 0.00 0.00 0.00 0.00 0.00 0.00 0.00 0.00 0.00 0.00 0.00 0.00 0.00 0.00 0.00 0.00 0.00 0.00 0.00 0.00 0.00 0.00 0.00 0.00 0.00 0.00 0.00
0.00 0.01 0.01 0.00 0.00 0.00 0.00 0.00 0.00 0.00 0.00 0.00 0.00 0.00 0.00 0.00 0.00 0.00 0.00 0.00 0.00 0.00 0.00 0.00 0.00 0.00 0.00 0.00 0.00 0.00 0.00 0.00 0.00 0.00 0.00 0.00 0.00 0.00 0.00 0.00 0.00 0.00 0.00
0.00 0.00 0.00 0.00 0.00 0.00 0.00 0.00 0.00 0.00 0.00 0.00 0.00 0.00 0.00 0.00 0.00 0.00 0.00 0.00 0.00 0.00 0.00 0.00 0.00 0.00 0.00 0.00 0.00 0.00 0.00 0.00 0.00 0.00 0.00 0.00 0.00 0.00 0.00 0.00 0.00 0.00 0.00
0.00 0.00 0.00 0.00 0.00 0.00 0.00 0.00 0.00 0.00 0.00 0.00 0.00 0.00 0.00 0.00 0.00 0.00 0.00 0.00 0.00 0.00 0.00 0.00 0.00 0.00 0.00 0.00 0.00 0.00 0.00 0.00 0.00 0.00 0.00 0.00 0.00 0.00 0.00 0.00 0.00 0.00 0.00
0.00 0.00 0.00 0.00 0.00 0.00 0.00 0.00 0.00 0.00 0.00 0.00 0.00 0.00 0.00 0.00 0.00 0.00 0.00 0.00 0.00 0.00 0.00 0.00 0.00 0.00 0.00 0.00 0.00 0.00 0.00 0.00 0.00 0.00 0.00 0.00 0.00 0.00 0.00 0.00 0.00 0.00 0.00
0.00 0.00 0.00 0.00 0.00 0.00 0.00 0.00 0.00 0.00 0.00 0.00 0.00 0.00 0.00 0.00 0.00 0.00 0.00 0.00 0.00 0.00 0.00 0.00 0.00 0.00 0.00 0.00 0.00 0.00 0.00 0.00 0.00 0.00 0.00 0.00 0.00 0.00 0.00 0.00 0.00 0.00 0.00
MSLP
1011.06 1011.47 1012.18 1012.85 1013.35 1013.94 1014.13 1014.34 1014.70 1014.53 1014.66 1014.93 1015.36 1015.41 1015.60 1015.52 1015.78 1016.13 1016.08 1016.03 1015.96 1016.16 1016.02 1015.99 1016.01 1015.89 1015.65 1015.11 1015.45 1015.41 1015.67 1015.90 1015.77 1015.17 1014.87 1014.68 1014.90 1014.94 1015.26 1015.36 1016.16 1015.90 1017.35
1010.17 1010.97 1011.46 1012.06 1012.54 1012.86 1013.49 1013.68 1014.06 1014.39 1014.56 1014.77 1015.10 1015.22 1015.24 1015.40 1015.23 1015.85 1015.84 1015.46 1015.46 1015.82 1016.00 1015.73 1015.53 1015.38 1016.07 1015.46 1015.25 1015.63 1014.92 1015.19 1015.30 1015.38 1014.88 1014.29 1014.50 1015.01 1015.25 1015.48 1015.06 1014.81 1016.41
1009.47 1010.13 1010.85 1011.30 1011.80 1012.10 1012.46 1013.11 1013.36 1013.81 1014.16 1014.22 1014.49 1014.76 1015.22 1015.19 1015.27 1015.50 1015.79 1015.91 1015.51 1015.37 1015.44 1015.78 1015.76 1015.80 1015.59 1015.57 1015.70 1015.35 1014.82 1015.26 1015.15 1015.13 1014.67 1014.70 1014.66 1014.36 1014.71 1015.07 1015.25 1015.01 1015.82
1009.00 1009.29 1009.88 1010.60 1010.79 1011.25 1011.76 1012.33 1012.85 1013.21 1013.58 1013.80 1013.93 1014.12 1014.50 1014.72 1014.80 1015.00 1015.12 1015.39 1015.23 1015.11 1015.37 1015.55 1015.69 1015.43 1015.34 1015.88 1015.99 1015.94 1015.50 1015.73 1015.44 1015.58 1015.64 1015.16 1015.21 1015.12 1014.84 1014.75 1015.43 1015.75 1016.69
1009.61 1009.43 1009.32 1009.95 1010.48 1010.73 1011.03 1011.55 1012.16 1012.55 1012.97 1013.30 1013.47 1013.65 1013.92 1014.12 1014.22 1014.58 1014.75 1014.89 1014.94 1015.08 1015.07 1015.14 1015.41 1015.77 1015.81 1016.22 1016.29 1015.95 1016.12 1016.15 1016.08 1016.18 1015.99 1015.93 1015.72 1015.64 1015.56 1015.41 1015.65 1015.90 1016.41
1009.92 1010.16 1009.79 1009.78 1010.27 1010.61 1010.78 1011.14 1011.54 1012.06 1012.35 1012.72 1012.91 1013.07 1013.32 1013.55 1013.49 1013.95 1014.30 1014.38 1014.46 1014.61 1015.02 1015.05 1014.82 1015.67 1016.27 1016.54 1016.68 1016.79 1016.94 1016.79 1016.50 1016.44 1016.42 1016.39 1016.29 1016.13 1015.83 1015.93 1016.16 1016.33 1016.85
1010.23 1010.36 1010.14 1009.94 1010.01 1010.32 1010.60 1010.83 1011.12 1011.44 1011.66 1011.96 1012.26 1012.53 1012.73 1013.06 1013.46 1013.70 1014.20 1014.40 1014.29 1014.22 1014.64 1014.71 1014.76 1015.37 1016.02 1016.38 1016.93 1017.04 1017.26 1017.48 1017.48 1017.07 1016.79 1016.97 1016.98 1017.09 1016.95 1016.53 1016.82 1017.35 1018.18
1010.70 1010.64 1010.40 1010.15 1010.17 1010.20 1010.33 1010.56 1010.83 1011.26 1011.25 1011.40 1011.58 1011.97 1012.46 1012.71 1013.30 1013.66 1014.01 1014.25 1013.97 1013.99 1014.46 1014.75 1015.12 1015.55 1016.26 1016.46 1016.63 1016.83 1017.19 1018.05 1018.22 1017.38 1017.67 1018.08 1018.39 1018.22 1017.36 1017.08 1017.34 1018.06 1018.58
1010.68 1010.63 1010.66 1010.49 1010.51 1010.44 1010.23 1010.20 1010.48 1010.79 1011.05 1011.15 1011.33 1011.77 1012.19 1012.62 1013.54 1013.64 1013.86 1013.84 1013.67 1014.21 1014.72 1015.36 1015.31 1015.91 1016.39 1016.55 1016.54 1016.98 1017.37 1018.28 1018.85 1018.86 1018.87 1018.96 1018.80 1018.54 1017.98 1017.09 1017.18 1017.63 1018.32
1010.25 1010.55 1010.66 1010.68 1010.69 1010.62 1010.60 1010.43 1010.51 1010.66 1010.76 1011.13 1011.26 1011.51 1011.81 1012.34 1013.62 1013.91 1014.01 1013.10 1013.92 1014.50 1015.20 1015.86 1016.09 1016.22 1016.46 1016.75 1016.71 1017.05 1017.50 1018.24 1018.51 1018.74 1018.89 1018.74 1018.44 1018.32 1017.84 1017.40 1017.04 1017.09 1017.66
1010.33 1010.70 1011.07 1011.17 1010.99 1010.62 1010.66 1010.67 1010.65 1010.76 1011.06 1011.32 1011.78 1012.20 1012.38 1012.70 1013.34 1013.80 1014.08 1013.76 1013.69 1014.66 1015.04 1015.13 1015.94 1016.65 1016.79 1016.82 1016.88 1017.11 1017.70 1018.53 1018.65 1018.42 1018.13 1017.84 1017.61 1017.59 1017.61 1017.66 1017.58 1017.10 1017.08
1010.23 1010.78 1011.34 1011.67 1011.21 1011.35 1011.14 1011.00 1011.03 1011.18 1011.60 1011.84 1012.32 1012.66 1013.16 1013.52 1013.61 1014.09 1014.35 1014.39 1014.11 1014.74 1015.23 1015.82 1016.45 1016.51 1017.05 1017.10 1017.35 1017.80 1017.91 1018.19 1017.80 1017.63 1017.77 1017.80 1017.78 1017.79 1018.04 1018.23 1018.46 1018.33 1018.36
1010.61 1011.11 1011.48 1011.64 1011.89 1011.92 1011.93 1011.85 1011.81 1011.98 1012.08 1012.49 1012.96 1013.41 1013.72 1013.97 1014.11 1014.36 1014.73 1014.80 1014.76 1015.25 1016.15 1016.52 1017.02 1017.20 1017.25 1017.53 1017.68 1017.67 1018.12 1017.54 1017.51 1017.80 1018.06 1018.02 1018.29 1018.47 1018.44 1018.34 1018.52 1018.71 1018.65
1011.18 1011.23 1011.53 1011.77 1012.23 1012.30 1012.57 1012.63 1012.68 1012.72 1013.00 1013.33 1013.59 1013.82 1014.14 1014.51 1014.66 1014.84 1015.28 1015.55 1015.75 1016.13 1016.72 1017.09 1017.53 1017.89 1017.38 1017.67 1017.66 1018.33 1018.19 1017.27 1017.13 1018.01 1017.89 1018.07 1018.41 1018.06 1018.11 1018.07 1017.85 1017.76 1017.70
1011.67 1011.84 1011.95 1012.18 1012.35 1013.07 1013.71 1014.13 1013.86 1013.98 1013.79 1013.84 1014.14 1014.45 1014.62 1015.01 1015.48 1015.46 1015.79 1016.24 1016.69 1016.98 1017.40 1017.59 1017.58 1017.75 1018.00 1017.74 1017.81 1017.81 1017.58 1017.49 1017.55 1017.90 1018.10 1018.38 1018.33 1018.71 1018.44 1018.44 1018.16 1017.89 1017.93
1012.04 1012.28 1012.21 1012.52 1013.02 1013.32 1013.85 1014.68 1014.94 1014.79 1014.70 1014.54 1014.72 1014.68 1015.15 1015.73 1015.94 1016.26 1016.50 1017.11 1017.40 1017.45 1017.79 1017.68 1017.71 1017.73 1017.80 1017.90 1017.90 1017.84 1017.92 1017.81 1017.96 1018.15 1018.23 1018.36 1018.48 1018.55 1018.74 1018.76 1018.67 1018.47 1018.44
1012.25 1012.58 1012.74 1013.01 1013.30 1013.72 1014.02 1014.45 1014.99 1015.67 1015.38 1015.56 1015.61 1015.55 1015.89 1016.25 1016.72 1016.79 1017.25 1017.27 1017.67 1017.59 1017.27 1017.24 1017.29 1017.37 1017.39 1017.40 1017.54 1017.66 1017.66 1017.83 1018.10 1018.45 1018.59 1018.69 1018.80 1018.95 1018.95 1018.89 1019.04 1018.91 1019.02
1012.24 1012.71 1012.97 1013.22 1013.46 1013.67 1013.97 1014.30 1014.69 1014.71 1015.34 1016.13 1016.71 1016.70 1016.81 1016.94 1017.14 1017.47 1017.63 1017.69 1017.34 1017.14 1016.37 1016.50 1016.79 1016.93 1016.95 1016.98 1017.07 1017.37 1017.94 1018.10 1018.27 1018.53 1018.76 1018.90 1018.93 1019.04 1019.09 1019.19 1019.33 1019.29 1019.28
1012.09 1012.55 1012.98 1013.20 1013.54 1013.73 1013.89 1014.34 1014.15 1014.78 1015.39 1016.25 1016.94 1017.32 1017.41 1017.53 1017.62 1017.62 1017.61 1017.22 1015.98 1015.87 1015.99 1015.90 1016.21 1016.49 1016.72 1016.89 1017.07 1017.45 1017.68 1017.98 1018.37 1018.82 1019.07 1019.27 1019.28 1019.32 1019.30 1019.41 1019.66 1019.66 1019.58
1011.95 1012.39 1012.82 1013.18 1013.40 1013.72 1013.96 1014.27 1014.44 1014.95 1015.53 1016.03 1016.52 1016.85 1017.06 1017.08 1017.06 1016.84 1016.59 1016.01 1015.19 1014.99 1015.28 1015.53 1015.85 1016.34 1016.72 1016.97 1017.41 1017.79 1018.19 1018.38 1018.75 1018.82 1018.95 1019.02 1018.98 1018.77 1018.86 1018.93 1019.13 1019.08 1019.06
1011.36 1012.01 1012.40 1012.70 1013.08 1013.37 1013.84 1014.18 1014.39 1014.72 1014.85 1015.19 1015.44 1015.66 1016.12 1015.90 1016.00 1015.69 1014.98 1014.80 1014.49 1014.72 1015.00 1015.27 1016.18 1016.59 1016.82 1017.18 1017.54 1017.75 1017.94 1018.06 1018.29 1018.25 1018.48 1018.76 1019.02 1018.68 1019.03 1018.93 1018.83 1018.77 1018.66
1010.39 1010.90 1011.28 1011.46 1012.10 1012.66 1012.84 1013.01 1013.39 1013.51 1013.77 1014.22 1014.57 1015.30 1015.45 1015.37 1014.06 1014.21 1014.20 1014.41 1014.54 1014.56 1015.04 1015.56 1016.03 1016.35 1016.60 1016.91 1017.25 1017.21 1017.23 1017.48 1017.85 1017.96 1018.08 1018.24 1018.37 1018.54 1018.40 1018.35 1018.29 1018.23 1018.28
1009.28 1009.78 1009.91 1010.27 1010.60 1011.06 1011.30 1011.18 1011.31 1011.65 1012.16 1012.45 1013.28 1014.18 1014.42 1013.66 1013.36 1013.82 1014.07 1013.84 1014.49 1014.71 1014.84 1015.30 1015.65 1015.80 1016.05 1016.47 1016.69 1016.54 1016.49 1016.81 1017.24 1017.19 1017.45 1017.72 1017.60 1017.62 1017.60 1017.72 1017.70 1017.74 1018.01
1008.78 1009.13 1009.48 1009.86 1010.43 1010.67 1010.60 1010.81 1011.02 1011.29 1011.39 1011.84 1012.44 1013.23 1013.24 1012.73 1012.97 1013.33 1013.61 1014.03 1014.32 1014.47 1014.86 1015.02 1015.05 1015.05 1015.66 1015.87 1016.09 1016.18 1016.26 1016.71 1016.66 1016.98 1017.30 1017.32 1017.19 1017.16 1017.44 1017.42 1017.64 1017.86 1018.02
1008.47 1008.92 1009.19 1009.50 1010.01 1010.06 1010.22 1010.34 1010.63 1010.97 1011.18 1011.43 1011.78 1012.18 1012.54 1012.60 1012.68 1013.10 1013.45 1013.67 1014.03 1014.31 1014.58 1014.95 1014.98 1015.27 1015.65 1016.03 1016.14 1017.15 1018.04 1017.97 1017.98 1018.57 1018.20 1018.06 1017.75 1017.49 1017.36 1017.30 1017.65 1017.42 1017.74
1008.25 1008.62 1009.01 1009.26 1009.61 1009.89 1009.73 1010.05 1010.15 1010.53 1010.84 1010.96 1011.26 1011.59 1011.89 1012.17 1012.45 1012.75 1013.12 1013.34 1013.61 1013.93 1014.30 1014.52 1014.76 1015.11 1015.33 1015.74 1016.23 1017.44 1017.90 1018.26 1018.38 1018.76 1018.59 1018.04 1017.62 1017.40 1017.20 1016.94 1016.71 1016.91 1017.28
Thickness
5789 5788 5783 5780 5779 5778 5779 5781 5779 5784 5784 5783 5781 5781 5780 5782 5782 5780 5782 5783 5784 5783 5786 5786 5785 5788 5789 5794 5791 5791 5787 5783 5776 5786 5793 5795 5792 5791 5787 5784 5778 5778 5767
5794 5789 5786 5785 5784 5783 5780 5783 5783 5782 5783 5783 5781 5781 5783 5782 5786 5782 5782 5787 5787 5784 5784 5787 5788 5791 5784 5790 5791 5786 5792 5790 5784 5775 5787 5792 5790 5788 5784 5780 5782 5782 5771
5796 5793 5789 5787 5786 5785 5785 5783 5785 5784 5783 5785 5784 5782 5780 5783 5784 5784 5781 5782 5786 5787 5788 5783 5785 5785 5785 5786 5785 5786 5790 5786 5787 5781 5783 5787 5787 5790 5784 5780 5778 5777 5771
5796 5797 5793 5790 5791 5790 5789 5787 5785 5785 5785 5785 5786 5786 5784 5784 5785 5784 5784 5782 5785 5787 5786 5785 5784 5786 5787 5782 5780 5779 5782 5777 5779 5775 5773 5777 5776 5779 5779 5777 5768 5767 5759
5785 5790 5794 5791 5791 5791 5791 5790 5788 5787 5785 5785 5786 5787 5786 5786 5786 5783 5783 5783 5782 5782 5785 5786 5784 5780 5779 5776 5776 5777 5774 5771 5770 5767 5766 5766 5766 5765 5763 5765 5761 5760 5756
5776 5776 5785 5788 5786 5786 5788 5788 5787 5786 5786 5785 5784 5785 5786 5787 5790 5785 5783 5782 5782 5781 5778 5780 5785 5777 5772 5769 5768 5765 5764 5764 5764 5762 5759 5756 5757 5758 5761 5756 5752 5747 5743
5765 5768 5775 5781 5782 5783 5784 5784 5784 5784 5786 5785 5785 5784 5784 5786 5784 5782 5777 5778 5778 5780 5777 5778 5778 5777 5771 5768 5760 5759 5756 5754 5753 5755 5752 5749 5748 5745 5744 5745 5739 5734 5724
5752 5757 5764 5771 5774 5777 5779 5779 5781 5780 5782 5782 5783 5783 5781 5783 5777 5774 5774 5775 5776 5777 5774 5773 5769 5768 5760 5760 5759 5756 5752 5743 5741 5748 5743 5737 5732 5729 5733 5733 5728 5719 5714
5742 5748 5753 5760 5762 5767 5771 5774 5775 5775 5776 5778 5779 5777 5776 5777 5768 5769 5769 5771 5772 5767 5766 5760 5763 5759 5751 5749 5751 5746 5741 5732 5727 5726 5725 5721 5720 5719 5720 5724 5718 5712 5702
5741 5742 5745 5749 5753 5756 5759 5763 5767 5768 5770 5771 5772 5773 5773 5772 5760 5759 5760 5770 5761 5757 5753 5748 5745 5746 5743 5740 5741 5736 5729 5724 5720 5717 5714 5713 5712 5710 5710 5711 5712 5706 5700
5736 5732 5732 5734 5740 5747 5750 5754 5756 5757 5758 5759 5758 5758 5760 5761 5756 5751 5749 5756 5755 5746 5745 5746 5740 5732 5730 5730 5730 5728 5720 5712 5708 5709 5710 5710 5708 5705 5701 5699 5698 5701 5699
5733 5727 5722 5721 5728 5729 5734 5740 5743 5745 5744 5745 5744 5743 5742 5744 5744 5741 5739 5740 5744 5737 5732 5727 5721 5721 5716 5716 5715 5707 5706 5702 5707 5705 5700 5697 5694 5692 5690 5686 5683 5682 5679
5723 5719 5717 5716 5715 5716 5718 5720 5723 5726 5729 5730 5728 5727 5727 5728 5729 5728 5727 5726 5727 5723 5713 5709 5705 5703 5701 5699 5696 5694 5690 5696 5696 5688 5683 5681 5676 5676 5677 5676 5673 5669 5667
5710 5712 5712 5710 5705 5706 5705 5706 5708 5709 5709 5710 5712 5713 5713 5713 5714 5714 5712 5710 5708 5704 5696 5693 5690 5686 5691 5686 5685 5676 5677 5683 5683 5674 5672 5668 5663 5668 5668 5669 5669 5668 5666
5699 5699 5700 5700 5700 5693 5688 5686 5691 5690 5694 5696 5697 5697 5698 5696 5694 5696 5695 5691 5688 5685 5680 5678 5677 5674 5671 5674 5671 5669 5669 5669 5666 5661 5658 5652 5654 5649 5654 5654 5655 5655 5650
5688 5687 5691 5689 5686 5687 5684 5677 5671 5673 5675 5680 5685 5686 5681 5677 5679 5678 5676 5671 5669 5667 5664 5664 5662 5661 5660 5659 5658 5656 5654 5654 5652 5649 5649 5647 5645 5645 5643 5642 5641 5639 5636
5676 5676 5676 5676 5675 5675 5674 5673 5669 5661 5662 5661 5662 5667 5668 5666 5659 5660 5658 5657 5651 5651 5657 5657 5656 5655 5654 5653 5651 5649 5649 5647 5644 5640 5639 5638 5636 5634 5634 5631 5627 5626 5622
5666 5663 5665 5667 5666 5666 5667 5666 5665 5666 5660 5652 5645 5648 5647 5647 5648 5643 5641 5642 5647 5649 5660 5656 5653 5652 5652 5651 5649 5646 5641 5641 5639 5635 5631 5628 5627 5624 5622 5619 5616 5613 5609
5656 5654 5653 5657 5656 5657 5660 5659 5661 5657 5652 5643 5638 5636 5635 5634 5634 5635 5637 5644 5656 5656 5655 5656 5652 5649 5646 5645 5644 5641 5638 5635 5631 5625 5620 5617 5616 5613 5611 5609 5603 5599 5595
5648 5646 5646 5646 5645 5646 5648 5647 5647 5643 5639 5637 5635 5634 5633 5635 5637 5640 5643 5647 5654 5656 5653 5652 5649 5645 5642 5639 5635 5630 5626 5624 5619 5617 5614 5613 5611 5611 5607 5604 5600 5596 5593
5645 5643 5641 5641 5639 5638 5635 5636 5635 5634 5636 5636 5637 5638 5634 5638 5636 5640 5649 5649 5652 5651 5651 5649 5640 5636 5634 5630 5625 5623 5620 5619 5616 5615 5612 5608 5603 5603 5598 5596 5593 5590 5587
5647 5644 5643 5643 5639 5636 5637 5639 5637 5638 5637 5636 5636 5630 5628 5635 5647 5645 5646 5645 5645 5647 5643 5638 5633 5631 5628 5624 5620 5620 5619 5616 5612 5610 5608 5605 5600 5596 5595 5591 5588 5585 5580
5650 5646 5648 5647 5646 5642 5643 5647 5647 5647 5643 5643 5637 5630 5630 5639 5642 5637 5636 5643 5636 5636 5635 5631 5628 5627 5624 5620 5618 5618 5618 5615 5611 5610 5605 5600 5599 5596 5593 5587 5583 5578 5572
5651 5648 5646 5644 5641 5640 5642 5641 5641 5638 5640 5638 5635 5628 5629 5635 5635 5634 5634 5631 5630 5630 5626 5625 5624 5624 5619 5618 5616 5614 5613 5610 5609 5602 5597 5595 5593 5590 5584 5580 5573 5566 5560
5650 5646 5645 5642 5639 5640 5640 5639 5637 5636 5635 5634 5633 5631 5630 5631 5631 5629 5627 5627 5625 5623 5621 5618 5618 5616 5613 5609 5608 5602 5599 5596 5591 5587 5582 5579 5578 5577 5574 5571 5563 5560 5553
5650 5646 5643 5642 5639 5638 5640 5637 5637 5635 5632 5633 5631 5630 5629 5628 5627 5625 5624 5623 5622 5620 5617 5615 5613 5610 5609 5605 5601 5596 5591 5586 5581 5578 5572 5571 5571 5569 5566 5563 5560 5553 5545